{"data":{"norad_id":51781,"intl_designator":"2022-017P","name":"STARLINK-3580","alt_names":[],"object_type":"PAYLOAD","status":"ACTIVE","operator":null,"country":"US","launch_date":"2022-02-25","launch_site_code":"AFWTR","launch_vehicle":null,"mission":null,"orbit_class":"UNKNOWN","rcs_meters":null,"size_class":null,"mass_kg":null,"dimensions":null,"purposes":["comms"],"wikipedia_slug":null,"has_3d_model":false,"image_url":null,"decayed_at":null,"tle_current":{"epoch":"2026-05-24T21:20:03.507072Z","epoch_age_seconds":85436,"freshness":"FRESH","line1":"1 51781U 22017P   26144.88892948  .00000969  00000+0  79007-4 0  9997","line2":"2 51781  53.2128 357.0103 0001284  91.9791 268.1348 15.08826792233924","mean_motion":15.08826792,"eccentricity":0.0001284,"inclination_deg":53.2128,"raan_deg":357.0103,"arg_perigee_deg":91.9791,"mean_anomaly_deg":268.1348,"bstar":7.9007e-5,"rev_number":23392,"period_min":95.438390121058,"perigee_km":538.89549980498,"apogee_km":540.67202185636,"semimajor_km":6917.9207608307,"source":"CELESTRAK","updated_at":"2026-05-25T13:38:16.952517Z"}}}